^^
Grace C. Lehan Memorial Weather Station Historical Data
Daily Summary for July 22, 2021 Units:  Metric    English   Both
Daily Weekly Monthly Yearly
  High: Low: Average:
Temperature: 32.6 °C 14.8 °C 23.8 °C
Dew Point: 19.2 °C 10.8 °C 14.9 °C
Humidity: 81% 40.7% 60%
Wind Speed: 16.1km/h 0km/h 2.1km/h
Wind Gust: 30.6km/h - -
Wind- - WNW
Pressure: 1025.6 hPa 1013.8 hPa -
Precipitation: 0 mm    
 
 
Tabular Data for July 22, 2021
Time Temperature Dew Point Pressure Wind Wind Speed Wind Gust Humidity Rainfall Rate (Hourly) solar
00:00 17.7 °C 10.8 °C 1025.6 hPa Calm     64% 0 mm 0 W/m2
00:09 17.6 °C 10.9 °C 1025.6 hPa Calm     64.7% 0 mm 0 W/m2
00:14 17.6 °C 10.9 °C 1025.6 hPa Calm     65% 0 mm 0 W/m2
00:19 17.5 °C 10.8 °C 1025.6 hPa Calm     65% 0 mm 0 W/m2
00:24 17.4 °C 10.8 °C 1025.6 hPa Calm     65.1% 0 mm 0 W/m2
00:29 17.4 °C 10.9 °C 1025.6 hPa Calm     65.6% 0 mm 0 W/m2
00:34 17.3 °C 10.9 °C 1025.3 hPa Calm     66% 0 mm 0 W/m2
00:39 17.3 °C 10.9 °C 1025.3 hPa Calm     66% 0 mm 0 W/m2
00:44 17.2 °C 11 °C 1025.3 hPa Calm     66.6% 0 mm 0 W/m2
00:49 17.2 °C 11 °C 1025.3 hPa Calm     67% 0 mm 0 W/m2
00:54 17.1 °C 10.9 °C 1025.3 hPa Calm     67% 0 mm 0 W/m2
00:59 17.1 °C 10.9 °C 1024.9 hPa Calm     67% 0 mm 0 W/m2
01:04 17 °C 10.8 °C 1024.9 hPa Calm     67% 0 mm 0 W/m2
01:09 16.9 °C 10.8 °C 1024.9 hPa Calm     67% 0 mm 0 W/m2
01:14 16.9 °C 10.8 °C 1024.6 hPa Calm   1.6 km/h 67% 0 mm 0 W/m2
01:19 16.9 °C 10.8 °C 1024.6 hPa Calm   1.6 km/h 67.7% 0 mm 0 W/m2
01:24 16.8 °C 10.9 °C 1024.6 hPa Calm   1.6 km/h 68% 0 mm 0 W/m2
01:29 16.8 °C 10.8 °C 1024.6 hPa Calm   1.6 km/h 68% 0 mm 0 W/m2
01:34 16.7 °C 10.8 °C 1024.6 hPa Calm   1.6 km/h 68% 0 mm 0 W/m2
01:39 16.7 °C 10.8 °C 1024.6 hPa Calm     68.1% 0 mm 0 W/m2
01:44 16.7 °C 10.9 °C 1024.6 hPa Calm     69% 0 mm 0 W/m2
01:49 16.6 °C 10.9 °C 1024.3 hPa Calm     69% 0 mm 0 W/m2
01:54 16.5 °C 10.8 °C 1024.3 hPa Calm     69.1% 0 mm 0 W/m2
01:59 16.4 °C 11 °C 1024.3 hPa Calm     70% 0 mm 0 W/m2
02:04 16.4 °C 10.9 °C 1024.3 hPa Calm     70% 0 mm 0 W/m2
02:09 16.3 °C 10.9 °C 1024.3 hPa Calm     70% 0 mm 0 W/m2
02:14 16.3 °C 10.8 °C 1024.3 hPa Calm     70% 0 mm 0 W/m2
02:19 16.2 °C 10.8 °C 1024.3 hPa Calm     70.2% 0 mm 0 W/m2
02:24 16.2 °C 10.9 °C 1023.9 hPa Calm     71% 0 mm 0 W/m2
02:29 16.2 °C 10.9 °C 1023.9 hPa Calm     71% 0 mm 0 W/m2
02:34 16.1 °C 10.9 °C 1023.9 hPa Calm     71.4% 0 mm 0 W/m2
02:39 16.1 °C 10.9 °C 1023.9 hPa Calm     71.5% 0 mm 0 W/m2
02:44 16 °C 11 °C 1023.9 hPa Calm     72% 0 mm 0 W/m2
02:49 16 °C 10.9 °C 1023.9 hPa Calm     72% 0 mm 0 W/m2
02:54 15.9 °C 11 °C 1023.9 hPa Calm     72.3% 0 mm 0 W/m2
02:59 15.9 °C 11.1 °C 1023.9 hPa Calm     73% 0 mm 0 W/m2
03:04 15.8 °C 11.1 °C 1023.6 hPa Calm     73.2% 0 mm 0 W/m2
03:09 15.8 °C 11.2 °C 1023.6 hPa Calm     74% 0 mm 0 W/m2
03:14 15.7 °C 11.1 °C 1023.6 hPa Calm     74% 0 mm 0 W/m2
03:19 15.7 °C 11.1 °C 1023.6 hPa Calm     74.2% 0 mm 0 W/m2
03:24 15.6 °C 11.2 °C 1023.6 hPa Calm     75% 0 mm 0 W/m2
03:29 15.6 °C 11.2 °C 1023.6 hPa Calm     75% 0 mm 0 W/m2
03:34 15.6 °C 11.2 °C 1023.2 hPa Calm     75% 0 mm 0 W/m2
03:39 15.5 °C 11.1 °C 1023.2 hPa Calm     75% 0 mm 0 W/m2
03:44 15.5 °C 11.1 °C 1023.2 hPa Calm     75% 0 mm 0 W/m2
03:49 15.4 °C 11.1 °C 1023.2 hPa Calm     75.3% 0 mm 0 W/m2
03:54 15.4 °C 11.2 °C 1023.2 hPa Calm     76% 0 mm 0 W/m2
03:59 15.3 °C 11.1 °C 1023.2 hPa Calm     76% 0 mm 0 W/m2
04:00 15.3 °C 11.1 °C 1023.2 hPa Calm     76% 0 mm 0 W/m2
04:09 15.2 °C 11.1 °C 1023.2 hPa Calm     76% 0 mm 0 W/m2
04:14 15.2 °C 11.1 °C 1023.2 hPa Calm     76.5% 0 mm 0 W/m2
04:19 15.1 °C 11.1 °C 1023.2 hPa Calm     77% 0 mm 0 W/m2
04:24 15.1 °C 11.1 °C 1023.2 hPa Calm     77% 0 mm 0 W/m2
04:29 15 °C 11 °C 1023.2 hPa Calm     77% 0 mm 0 W/m2
04:34 14.9 °C 11 °C 1023.2 hPa Calm     77% 0 mm 0 W/m2
04:39 14.9 °C 10.9 °C 1023.2 hPa Calm     77% 0 mm 0 W/m2
04:44 14.9 °C 11.1 °C 1022.9 hPa Calm     77.8% 0 mm 0 W/m2
04:49 14.8 °C 11.1 °C 1022.9 hPa Calm     78% 0 mm 0 W/m2
04:54 14.8 °C 11.1 °C 1022.9 hPa Calm     78% 0 mm 0 W/m2
04:59 14.8 °C 11.1 °C 1022.9 hPa Calm     78.4% 0 mm 0 W/m2
05:04 14.8 °C 11.2 °C 1022.9 hPa Calm     79% 0 mm 0 W/m2
05:09 14.8 °C 11.2 °C 1022.9 hPa Calm     79% 0 mm 0 W/m2
05:14 14.8 °C 11.2 °C 1022.9 hPa Calm     79% 0 mm 0 W/m2
05:19 14.8 °C 11.2 °C 1022.9 hPa Calm     79% 0 mm 0 W/m2
05:24 14.8 °C 11.2 °C 1022.9 hPa Calm     79% 0 mm 0 W/m2
05:29 14.8 °C 11.3 °C 1022.9 hPa Calm     79% 0 mm 0 W/m2
05:34 14.9 °C 11.4 °C 1022.9 hPa Calm     79.7% 0 mm 5 W/m2
05:39 14.9 °C 11.5 °C 1022.9 hPa Calm     80% 0 mm 9 W/m2
05:44 15 °C 11.6 °C 1022.9 hPa Calm     80% 0 mm 9 W/m2
05:49 15 °C 11.6 °C 1022.9 hPa Calm     80% 0 mm 11 W/m2
05:54 15.1 °C 11.7 °C 1022.9 hPa Calm     80% 0 mm 11 W/m2
05:59 15.1 °C 11.7 °C 1022.6 hPa Calm     80% 0 mm 11 W/m2
06:04 15.2 °C 11.8 °C 1022.6 hPa Calm     80.3% 0 mm 12 W/m2
06:09 15.2 °C 11.8 °C 1022.6 hPa Calm     80.5% 0 mm 14 W/m2
06:14 15.2 °C 11.9 °C 1022.6 hPa Calm     80.9% 0 mm 16 W/m2
06:19 15.3 °C 11.9 °C 1022.6 hPa Calm     80.1% 0 mm 21 W/m2
06:24 15.3 °C 11.9 °C 1022.6 hPa Calm     80.5% 0 mm 28 W/m2
06:29 15.3 °C 11.9 °C 1022.6 hPa Calm     80% 0 mm 32 W/m2
06:34 15.4 °C 12 °C 1022.6 hPa Calm     80.1% 0 mm 33 W/m2
06:39 15.5 °C 12.2 °C 1022.6 hPa Calm     80.4% 0 mm 33 W/m2
06:44 15.6 °C 12.1 °C 1022.6 hPa Calm     80% 0 mm 33 W/m2
06:49 15.7 °C 12.3 °C 1022.6 hPa Calm     80.3% 0 mm 30 W/m2
06:54 15.7 °C 12.3 °C 1022.6 hPa Calm     80.4% 0 mm 33 W/m2
06:59 15.8 °C 12.3 °C 1022.6 hPa Calm     80% 0 mm 37 W/m2
07:04 15.8 °C 12.4 °C 1022.6 hPa Calm     80% 0 mm 40 W/m2
07:09 15.9 °C 12.4 °C 1022.6 hPa Calm     80% 0 mm 44 W/m2
07:14 16 °C 12.6 °C 1022.6 hPa Calm     80% 0 mm 49 W/m2
07:19 16.1 °C 12.7 °C 1022.6 hPa Calm     80.7% 0 mm 56 W/m2
07:24 16.1 °C 12.8 °C 1022.2 hPa Calm     81% 0 mm 60 W/m2
07:29 16.2 °C 12.8 °C 1022.2 hPa Calm     80.6% 0 mm 67 W/m2
07:34 16.2 °C 12.8 °C 1022.2 hPa Calm     80% 0 mm 90 W/m2
07:39 16.3 °C 12.9 °C 1022.2 hPa Calm     80% 0 mm 109 W/m2
07:44 16.4 °C 12.9 °C 1022.2 hPa Calm     79.6% 0 mm 121 W/m2
07:49 16.6 °C 12.8 °C 1022.2 hPa Calm     78.8% 0 mm 135 W/m2
07:54 16.7 °C 12.9 °C 1022.2 hPa Calm     78.3% 0 mm 146 W/m2
07:59 16.8 °C 12.9 °C 1022.2 hPa Calm     78% 0 mm 162 W/m2
08:00 16.9 °C 13.1 °C 1022.2 hPa Calm     78% 0 mm 162 W/m2
08:09 17.2 °C 13.3 °C 1022.2 hPa Calm     77.8% 0 mm 167 W/m2
08:14 17.4 °C 13.4 °C 1022.2 hPa Calm     77.6% 0 mm 156 W/m2
08:19 17.6 °C 13.3 °C 1022.2 hPa Calm     76.2% 0 mm 146 W/m2
08:24 17.7 °C 13.3 °C 1022.2 hPa Calm     75.6% 0 mm 155 W/m2
08:29 17.9 °C 13.6 °C 1022.2 hPa Calm     75.7% 0 mm 167 W/m2
08:34 18.1 °C 13.6 °C 1022.2 hPa Calm     75.1% 0 mm 214 W/m2
08:39 18.2 °C 13.6 °C 1022.2 hPa Calm     74.3% 0 mm 232 W/m2
08:44 18.4 °C 13.7 °C 1022.2 hPa Calm     74% 0 mm 248 W/m2
08:49 18.7 °C 13.9 °C 1022.2 hPa Calm     73.9% 0 mm 267 W/m2
08:54 18.9 °C 13.9 °C 1022.2 hPa Calm     73% 0 mm 283 W/m2
08:59 19.1 °C 14.2 °C 1021.9 hPa Calm     73.2% 0 mm 360 W/m2
09:04 19.4 °C 14.6 °C 1021.9 hPa Calm     73.4% 0 mm 396 W/m2
09:09 19.9 °C 14.8 °C 1021.9 hPa Calm     72.6% 0 mm 680 W/m2
09:14 20.5 °C 14.7 °C 1021.9 hPa Calm     69.5% 0 mm 754 W/m2
09:19 20.9 °C 14.8 °C 1021.9 hPa Calm     68.2% 0 mm 459 W/m2
09:24 21.1 °C 15.1 °C 1021.9 hPa Calm     68.4% 0 mm 745 W/m2
09:29 21.7 °C 15.4 °C 1021.6 hPa Calm     67.7% 0 mm 867 W/m2
09:34 22.4 °C 15.7 °C 1021.6 hPa Calm     65.7% 0 mm 756 W/m2
09:39 23 °C 15.8 °C 1021.6 hPa Calm     63.9% 0 mm 721 W/m2
09:44 23.6 °C 16.4 °C 1021.6 hPa Calm     64.1% 0 mm 605 W/m2
09:49 23.9 °C 16 °C 1021.2 hPa Calm     61.2% 0 mm 575 W/m2
09:54 24.2 °C 16.1 °C 1021.2 hPa Calm     60.8% 0 mm 668 W/m2
09:59 24.4 °C 16.5 °C 1021.2 hPa Calm     61.5% 0 mm 761 W/m2
10:04 24.7 °C 16.7 °C 1021.2 hPa Calm     61.2% 0 mm 761 W/m2
10:09 24.8 °C 16.5 °C 1021.2 hPa Calm     59.9% 0 mm 777 W/m2
10:14 24.9 °C 16.7 °C 1020.9 hPa Calm     60.4% 0 mm 777 W/m2
10:19 25.1 °C 16.7 °C 1020.9 hPa Calm     60% 0 mm 649 W/m2
10:24 25.2 °C 16.8 °C 1020.9 hPa Calm     59.5% 0 mm 649 W/m2
10:29 25.4 °C 16.9 °C 1020.9 hPa Calm     59.4% 0 mm 469 W/m2
10:34 25.5 °C 16.9 °C 1020.5 hPa Calm     59% 0 mm 589 W/m2
10:39 25.6 °C 17.2 °C 1020.5 hPa Calm     59.8% 0 mm 640 W/m2
10:44 25.7 °C 17.2 °C 1020.5 hPa Calm     59.2% 0 mm 554 W/m2
10:49 25.9 °C 17.7 °C 1020.5 hPa Calm     60.2% 0 mm 645 W/m2
10:54 26.3 °C 17.7 °C 1020.5 hPa Calm     59.3% 0 mm 663 W/m2
10:59 26.7 °C 18.1 °C 1020.5 hPa Calm     59.5% 0 mm 715 W/m2
11:04 27.1 °C 18.4 °C 1020.2 hPa Calm     59.1% 0 mm 698 W/m2
11:09 27.5 °C 18.7 °C 1020.2 hPa Calm     58.6% 0 mm 708 W/m2
11:14 27.8 °C 18.6 °C 1020.2 hPa Calm     57.4% 0 mm 680 W/m2
11:19 28.1 °C 18.9 °C 1019.9 hPa Calm     57.5% 0 mm 745 W/m2
11:24 28.4 °C 18.6 °C 1019.9 hPa Calm     55.4% 0 mm 742 W/m2
11:29 28.7 °C 18.9 °C 1019.9 hPa Calm     55.8% 0 mm 779 W/m2
11:34 29 °C 19.1 °C 1019.5 hPa Calm     55.2% 0 mm 772 W/m2
11:39 29.4 °C 19.2 °C 1019.5 hPa Calm     54.3% 0 mm 731 W/m2
11:44 29.7 °C 19.2 °C 1019.5 hPa WSW 1.9 km/h 16.1 km/h 53.3% 0 mm 497 W/m2
11:49 29.8 °C 18.6 °C 1019.5 hPa West 2.1 km/h 16.1 km/h 51% 0 mm 547 W/m2
11:54 30.1 °C 18.6 °C 1019.5 hPa WNW 3.1 km/h 16.1 km/h 50.2% 0 mm 501 W/m2
11:59 30.2 °C 17.3 °C 1019.2 hPa WNW 4.5 km/h 17.7 km/h 46.1% 0 mm 406 W/m2
12:00 30.2 °C 17 °C 1019.2 hPa Calm   17.7 km/h 45% 0 mm 396 W/m2
12:09 30.3 °C 17.7 °C 1019.2 hPa West 2.1 km/h 9.7 km/h 46.8% 0 mm 415 W/m2
12:14 30.3 °C 17.9 °C 1019.2 hPa WNW 0.6 km/h 9.7 km/h 47.5% 0 mm 424 W/m2
12:19 30.4 °C 17.9 °C 1019.2 hPa WNW 4 km/h 11.3 km/h 47.3% 0 mm 399 W/m2
12:24 30.4 °C 17.1 °C 1018.8 hPa WNW 5.6 km/h 14.5 km/h 44.8% 0 mm 390 W/m2
12:29 30.3 °C 17.4 °C 1018.8 hPa WNW 4.8 km/h 14.5 km/h 45.9% 0 mm 432 W/m2
12:34 30.3 °C 17.7 °C 1018.8 hPa West 2.1 km/h 14.5 km/h 47% 0 mm 513 W/m2
12:38 30.3 °C 17.8 °C 1018.8 hPa West 2.7 km/h 9.7 km/h 47.2% 0 mm 564 W/m2
12:44 30.3 °C 17.8 °C 1018.5 hPa NW 4 km/h 11.3 km/h 47.2% 0 mm 615 W/m2
12:49 30.4 °C 17.6 °C 1018.5 hPa NW 4.3 km/h 11.3 km/h 46% 0 mm 939 W/m2
12:54 30.7 °C 17.8 °C 1018.5 hPa NW 3.1 km/h 11.3 km/h 46.3% 0 mm 969 W/m2
12:59 31.1 °C 18.2 °C 1018.5 hPa WNW 4.7 km/h 14.5 km/h 46.4% 0 mm 995 W/m2
13:04 31.4 °C 17.7 °C 1018.2 hPa WNW 5.6 km/h 16.1 km/h 43.9% 0 mm 1014 W/m2
13:09 31.7 °C 17.4 °C 1018.2 hPa WNW 6.3 km/h 16.1 km/h 42.5% 0 mm 933 W/m2
13:14 31.7 °C 18 °C 1018.2 hPa WNW 4.2 km/h 16.1 km/h 44.2% 0 mm 988 W/m2
13:19 31.9 °C 18.7 °C 1018.2 hPa NW 5 km/h 16.1 km/h 45.5% 0 mm 1027 W/m2
13:24 32.3 °C 18.1 °C 1017.8 hPa West 7.4 km/h 19.3 km/h 42.8% 0 mm 926 W/m2
13:29 32.4 °C 18.1 °C 1017.8 hPa WSW 6.3 km/h 19.3 km/h 42.6% 0 mm 954 W/m2
13:34 32.6 °C 17.9 °C 1017.8 hPa WNW 7.9 km/h 24.1 km/h 41.8% 0 mm 954 W/m2
13:39 32.6 °C 17.6 °C 1017.8 hPa WNW 10.6 km/h 25.7 km/h 40.9% 0 mm 780 W/m2
13:44 32.6 °C 17.6 °C 1017.8 hPa West 6.4 km/h 25.7 km/h 40.8% 0 mm 640 W/m2
13:49 32.4 °C 17.6 °C 1017.5 hPa WNW 6.3 km/h 25.7 km/h 41.2% 0 mm 417 W/m2
13:54 32.2 °C 17.2 °C 1017.5 hPa WNW 8 km/h 25.7 km/h 40.7% 0 mm 624 W/m2
13:59 32.1 °C 17.6 °C 1017.5 hPa West 3.9 km/h 25.7 km/h 42.1% 0 mm 735 W/m2
14:04 32.1 °C 17.8 °C 1017.5 hPa West 5 km/h 25.7 km/h 42.7% 0 mm 735 W/m2
14:09 32.1 °C 18 °C 1017.5 hPa WNW 7.6 km/h 19.3 km/h 43.1% 0 mm 904 W/m2
14:14 32.1 °C 17.8 °C 1017.2 hPa West 8.7 km/h 19.3 km/h 42.9% 0 mm 925 W/m2
14:19 32.2 °C 17.9 °C 1017.2 hPa WNW 11.3 km/h 20.9 km/h 42.6% 0 mm 853 W/m2
14:24 32.2 °C 18 °C 1017.2 hPa West 7.9 km/h 20.9 km/h 42.9% 0 mm 853 W/m2
14:29 32.2 °C 17.6 °C 1017.2 hPa WNW 9.5 km/h 24.1 km/h 41.8% 0 mm 649 W/m2
14:34 32 °C 17.7 °C 1017.2 hPa NW 8.7 km/h 24.1 km/h 42.5% 0 mm 745 W/m2
14:39 31.9 °C 18 °C 1017.2 hPa West 8.9 km/h 30.6 km/h 43.5% 0 mm 745 W/m2
14:44 31.8 °C 17.5 °C 1016.8 hPa West 9.7 km/h 30.6 km/h 42.5% 0 mm 499 W/m2
14:49 31.7 °C 18 °C 1016.8 hPa West 7.6 km/h 30.6 km/h 44.1% 0 mm 819 W/m2
14:54 31.8 °C 17.8 °C 1016.8 hPa West 8.4 km/h 30.6 km/h 43.5% 0 mm 613 W/m2
14:59 31.8 °C 17.8 °C 1016.8 hPa WNW 8.9 km/h 30.6 km/h 43.4% 0 mm 406 W/m2
15:04 31.7 °C 17.7 °C 1016.8 hPa WNW 5.3 km/h 30.6 km/h 43.2% 0 mm 406 W/m2
15:09 31.7 °C 17.9 °C 1016.8 hPa WNW 4.2 km/h 16.1 km/h 44% 0 mm 311 W/m2
15:14 31.6 °C 17.7 °C 1016.8 hPa NW 8.9 km/h 22.5 km/h 43.7% 0 mm 290 W/m2
15:19 31.3 °C 17.5 °C 1016.5 hPa WNW 6.6 km/h 22.5 km/h 43.8% 0 mm 315 W/m2
15:24 31.1 °C 17.6 °C 1016.5 hPa WNW 4.2 km/h 22.5 km/h 44.4% 0 mm 420 W/m2
15:29 31 °C 17.7 °C 1016.5 hPa NW 4.7 km/h 22.5 km/h 45.2% 0 mm 420 W/m2
15:34 31 °C 17.6 °C 1016.5 hPa NW 5.6 km/h 22.5 km/h 44.6% 0 mm 301 W/m2
15:39 31 °C 17.6 °C 1016.5 hPa NW 8.7 km/h 22.5 km/h 44.9% 0 mm 601 W/m2
15:44 31.1 °C 17.9 °C 1016.1 hPa NNW 1.4 km/h 22.5 km/h 45.5% 0 mm 601 W/m2
15:49 31.2 °C 18.2 °C 1016.1 hPa NW 7.7 km/h 22.5 km/h 45.8% 0 mm 527 W/m2
15:54 31.2 °C 17.5 °C 1016.1 hPa WNW 11.1 km/h 30.6 km/h 43.9% 0 mm 214 W/m2
15:59 31.1 °C 17.2 °C 1016.1 hPa WNW 10.3 km/h 30.6 km/h 43.5% 0 mm 417 W/m2
16:00 30.9 °C 17.3 °C 1015.8 hPa NW 16.1 km/h 30.6 km/h 44% 0 mm 262 W/m2
16:09 30.9 °C 17.4 °C 1015.8 hPa WNW 9.8 km/h 24.1 km/h 44.5% 0 mm 622 W/m2
16:14 31 °C 17.7 °C 1015.8 hPa WNW 4.8 km/h 24.1 km/h 45.1% 0 mm 160 W/m2
16:19 31.1 °C 17.7 °C 1015.8 hPa WNW 10.1 km/h 24.1 km/h 45% 0 mm 144 W/m2
16:24 30.9 °C 17.5 °C 1015.8 hPa WNW 5.1 km/h 24.1 km/h 44.7% 0 mm 109 W/m2
16:29 30.7 °C 17.6 °C 1015.8 hPa WNW 5.6 km/h 24.1 km/h 45.3% 0 mm 111 W/m2
16:34 30.6 °C 17.3 °C 1015.8 hPa WNW 7.4 km/h 24.1 km/h 45% 0 mm 116 W/m2
16:39 30.4 °C 17.5 °C 1015.8 hPa WNW 3.4 km/h 11.3 km/h 45.9% 0 mm 134 W/m2
16:44 30.4 °C 17.3 °C 1015.5 hPa NW 4.2 km/h 14.5 km/h 45.4% 0 mm 162 W/m2
16:49 30.4 °C 17.6 °C 1015.5 hPa WNW 5.8 km/h 19.3 km/h 46.1% 0 mm 169 W/m2
16:54 30.6 °C 17.5 °C 1015.5 hPa WNW 5.5 km/h 19.3 km/h 45.6% 0 mm 163 W/m2
16:59 30.6 °C 17.6 °C 1015.5 hPa WNW 4 km/h 19.3 km/h 45.8% 0 mm 135 W/m2
17:04 30.6 °C 17.5 °C 1015.5 hPa WNW 1.4 km/h 19.3 km/h 45.5% 0 mm 155 W/m2
17:09 30.6 °C 17.8 °C 1015.5 hPa NW 2.7 km/h 8 km/h 46.5% 0 mm 149 W/m2
17:14 30.6 °C 17.4 °C 1015.5 hPa NW 5.6 km/h 19.3 km/h 45.3% 0 mm 130 W/m2
17:19 30.5 °C 17.4 °C 1015.5 hPa WSW 2.7 km/h 19.3 km/h 45.7% 0 mm 141 W/m2
17:24 30.4 °C 17.7 °C 1015.5 hPa NW 2.7 km/h 19.3 km/h 46.6% 0 mm 144 W/m2
17:29 30.4 °C 17.6 °C 1015.5 hPa WNW 4.2 km/h 19.3 km/h 46.1% 0 mm 155 W/m2
17:34 30.4 °C 17.3 °C 1015.1 hPa NW 4.5 km/h 19.3 km/h 45.6% 0 mm 155 W/m2
17:39 30.4 °C 17.4 °C 1015.1 hPa NW 2.3 km/h 11.3 km/h 45.9% 0 mm 149 W/m2
17:44 30.4 °C 17.4 °C 1015.1 hPa NW 5.6 km/h 16.1 km/h 45.9% 0 mm 151 W/m2
17:49 30.4 °C 17.3 °C 1015.1 hPa NW 5.1 km/h 16.1 km/h 45.6% 0 mm 144 W/m2
17:54 30.4 °C 17.3 °C 1015.1 hPa NW 4.8 km/h 16.1 km/h 45.5% 0 mm 139 W/m2
17:59 30.3 °C 17.3 °C 1015.1 hPa WNW 4.8 km/h 17.7 km/h 45.6% 0 mm 134 W/m2
18:04 30.3 °C 17.2 °C 1015.1 hPa WNW 5.3 km/h 19.3 km/h 45.5% 0 mm 118 W/m2
18:09 30.2 °C 17.1 °C 1015.1 hPa WNW 4.3 km/h 19.3 km/h 45.5% 0 mm 107 W/m2
18:14 30.1 °C 17 °C 1015.1 hPa WNW 4.3 km/h 19.3 km/h 45.5% 0 mm 98 W/m2
18:19 29.9 °C 17.1 °C 1015.1 hPa WNW 3.7 km/h 19.3 km/h 45.8% 0 mm 90 W/m2
18:24 29.8 °C 16.7 °C 1015.1 hPa WNW 3.4 km/h 19.3 km/h 45.2% 0 mm 84 W/m2
18:29 29.7 °C 16.4 °C 1015.1 hPa NW 5.8 km/h 22.5 km/h 44.8% 0 mm 81 W/m2
18:34 29.6 °C 16.3 °C 1015.1 hPa NW 5.5 km/h 22.5 km/h 45% 0 mm 74 W/m2
18:39 29.4 °C 16.3 °C 1015.1 hPa WNW 5.5 km/h 17.7 km/h 45% 0 mm 65 W/m2
18:44 29.3 °C 15.8 °C 1015.1 hPa WNW 5.5 km/h 17.7 km/h 44% 0 mm 63 W/m2
18:49 29.3 °C 15.9 °C 1015.1 hPa WNW 7.7 km/h 19.3 km/h 44.3% 0 mm 62 W/m2
18:54 29.3 °C 15.8 °C 1015.1 hPa WNW 5 km/h 19.3 km/h 44% 0 mm 58 W/m2
18:59 29.2 °C 15.8 °C 1015.1 hPa WNW 4.8 km/h 19.3 km/h 44.4% 0 mm 53 W/m2
19:04 29.1 °C 15.9 °C 1015.1 hPa West 6.6 km/h 19.3 km/h 45% 0 mm 47 W/m2
19:09 28.9 °C 16 °C 1015.1 hPa WNW 2.7 km/h 19.3 km/h 45.4% 0 mm 40 W/m2
19:14 28.8 °C 16 °C 1015.1 hPa WNW 5 km/h 19.3 km/h 45.8% 0 mm 37 W/m2
19:19 28.7 °C 15.9 °C 1015.1 hPa NW 3.4 km/h 19.3 km/h 45.8% 0 mm 35 W/m2
19:24 28.6 °C 15.8 °C 1015.1 hPa WNW 4.3 km/h 19.3 km/h 46% 0 mm 30 W/m2
19:29 28.4 °C 16 °C 1014.8 hPa WNW 0.6 km/h 19.3 km/h 46.8% 0 mm 26 W/m2
19:34 28.4 °C 16 °C 1014.8 hPa WNW 2.1 km/h 19.3 km/h 47% 0 mm 23 W/m2
19:39 28.2 °C 15.9 °C 1014.8 hPa West 4.8 km/h 11.3 km/h 47% 0 mm 21 W/m2
19:44 28.2 °C 15.9 °C 1014.8 hPa WNW 3.9 km/h 11.3 km/h 47.4% 0 mm 21 W/m2
19:49 28.1 °C 15.9 °C 1014.8 hPa WNW 1.1 km/h 11.3 km/h 47.6% 0 mm 19 W/m2
19:54 28 °C 16 °C 1014.8 hPa Calm   11.3 km/h 48% 0 mm 16 W/m2
19:59 27.9 °C 15.9 °C 1014.8 hPa Calm   11.3 km/h 48% 0 mm 12 W/m2
20:00 27.9 °C 15.9 °C 1014.8 hPa Calm   11.3 km/h 48% 0 mm 9 W/m2
20:09 27.8 °C 16.1 °C 1014.8 hPa WNW 0.5 km/h 4.8 km/h 48.7% 0 mm 5 W/m2
20:14 27.7 °C 16.1 °C 1014.8 hPa Calm   4.8 km/h 49% 0 mm 5 W/m2
20:19 27.7 °C 16 °C 1014.8 hPa WNW 0.2 km/h 4.8 km/h 49% 0 mm 0 W/m2
20:24 27.6 °C 15.9 °C 1014.8 hPa WNW 0.6 km/h 4.8 km/h 49% 0 mm 0 W/m2
20:29 27.4 °C 15.9 °C 1014.8 hPa Calm   4.8 km/h 49.4% 0 mm 0 W/m2
20:34 27.3 °C 16 °C 1014.8 hPa Calm   4.8 km/h 50% 0 mm 0 W/m2
20:39 27.2 °C 16.1 °C 1014.4 hPa Calm     50.7% 0 mm 0 W/m2
20:44 27.1 °C 16.1 °C 1014.4 hPa Calm     51% 0 mm 0 W/m2
20:49 26.9 °C 16 °C 1014.4 hPa Calm     51.3% 0 mm 0 W/m2
20:54 26.8 °C 16.1 °C 1014.4 hPa Calm     52% 0 mm 0 W/m2
20:59 26.7 °C 16.1 °C 1014.8 hPa Calm     52% 0 mm 0 W/m2
21:04 26.6 °C 15.9 °C 1014.8 hPa Calm     52% 0 mm 0 W/m2
21:09 26.5 °C 16.1 °C 1014.8 hPa Calm     52.8% 0 mm 0 W/m2
21:14 26.4 °C 16.1 °C 1014.8 hPa Calm     53% 0 mm 0 W/m2
21:19 26.3 °C 15.9 °C 1014.8 hPa Calm     53% 0 mm 0 W/m2
21:24 26.2 °C 16 °C 1014.8 hPa Calm     53.5% 0 mm 0 W/m2
21:29 26.1 °C 16.1 °C 1014.8 hPa Calm     54% 0 mm 0 W/m2
21:34 26.1 °C 16 °C 1014.8 hPa Calm     54% 0 mm 0 W/m2
21:39 25.9 °C 16.1 °C 1014.8 hPa Calm     54.5% 0 mm 0 W/m2
21:44 25.9 °C 16.2 °C 1014.8 hPa Calm     55% 0 mm 0 W/m2
21:49 25.8 °C 16.1 °C 1014.8 hPa Calm     55% 0 mm 0 W/m2
21:54 25.7 °C 16.1 °C 1014.8 hPa WNW 0.2 km/h 1.6 km/h 55.1% 0 mm 0 W/m2
21:59 25.7 °C 16.2 °C 1014.8 hPa Calm   1.6 km/h 55.9% 0 mm 0 W/m2
22:04 25.6 °C 16.3 °C 1014.8 hPa Calm   1.6 km/h 56.4% 0 mm 0 W/m2
22:09 25.4 °C 16.3 °C 1014.8 hPa Calm   1.6 km/h 57% 0 mm 0 W/m2
22:14 25.3 °C 16.2 °C 1014.8 hPa Calm   1.6 km/h 57% 0 mm 0 W/m2
22:19 25.3 °C 16.4 °C 1014.8 hPa WNW 0.2 km/h 4.8 km/h 57.9% 0 mm 0 W/m2
22:24 25.1 °C 16.3 °C 1014.8 hPa WNW 1.8 km/h 8 km/h 58% 0 mm 0 W/m2
22:29 24.9 °C 16.2 °C 1014.4 hPa West 2.4 km/h 11.3 km/h 58.4% 0 mm 0 W/m2
22:34 24.8 °C 16.1 °C 1014.4 hPa West 0.6 km/h 11.3 km/h 58.2% 0 mm 0 W/m2
22:39 24.8 °C 16.1 °C 1014.4 hPa WNW 2.4 km/h 14.5 km/h 58.5% 0 mm 0 W/m2
22:44 24.7 °C 15.9 °C 1014.4 hPa West 2.4 km/h 14.5 km/h 58.2% 0 mm 0 W/m2
22:49 24.7 °C 16.1 °C 1014.4 hPa WNW 1.1 km/h 14.5 km/h 59% 0 mm 0 W/m2
22:54 24.7 °C 16.1 °C 1014.1 hPa WNW 1 km/h 14.5 km/h 59% 0 mm 0 W/m2
22:59 24.6 °C 16.1 °C 1014.1 hPa WNW 2.9 km/h 14.5 km/h 59% 0 mm 0 W/m2
23:04 24.6 °C 16.1 °C 1014.1 hPa WNW 3.5 km/h 14.5 km/h 59% 0 mm 0 W/m2
23:09 24.6 °C 16.1 °C 1014.1 hPa WNW 3.4 km/h 16.1 km/h 59% 0 mm 0 W/m2
23:14 24.6 °C 16.1 °C 1014.1 hPa WNW 3.9 km/h 16.1 km/h 59% 0 mm 0 W/m2
23:19 24.6 °C 16.1 °C 1014.1 hPa WNW 6.3 km/h 19.3 km/h 59% 0 mm 0 W/m2
23:24 24.7 °C 16.1 °C 1014.1 hPa WNW 5.8 km/h 19.3 km/h 58.8% 0 mm 0 W/m2
23:29 24.7 °C 15.9 °C 1014.1 hPa West 4.8 km/h 19.3 km/h 58.1% 0 mm 0 W/m2
23:34 24.7 °C 16 °C 1014.1 hPa WNW 3.2 km/h 19.3 km/h 58.3% 0 mm 0 W/m2
23:39 24.7 °C 16.2 °C 1014.1 hPa WNW 8.9 km/h 20.9 km/h 59% 0 mm 0 W/m2
23:44 24.7 °C 16.2 °C 1014.1 hPa WNW 5.6 km/h 20.9 km/h 59% 0 mm 0 W/m2
23:49 24.7 °C 16.2 °C 1013.8 hPa WNW 7.2 km/h 20.9 km/h 59% 0 mm 0 W/m2
23:54 24.7 °C 16.1 °C 1013.8 hPa WNW 7.2 km/h 24.1 km/h 59% 0 mm 0 W/m2
23:59 24.7 °C 16.1 °C 1013.8 hPa WNW 6.1 km/h 24.1 km/h 59% 0 mm 0 W/m2
Hartford County Weather
Compliments of Weather Underground - 2 mb